UAL9 MMSD-KDEN

Flight info

Callsign UAL9
Flight time 2h 36m
Altitude 36000
Route ANEGO1A ANEGO DCT LTO DCT HMO J92 TUS DCT ZUN DCT CRUDD TBARR4
Aircraft A321/M-SDE2E3FGHIRWXY/LB1

Departure

Time 2026-05-03 20:18
Airport Los Cabos International Airport (MMSD)

Arrival

Time 2026-05-03 22:54
Airport Denver International Airport (KDEN)
Time Latitude Longitude Altitude Speed Heading
2026-05-03 20:15 23.15805 -109.71938 373 ft 22 kts 353°
2026-05-03 20:15 23.15967 -109.71956 377 ft 23 kts 353°
2026-05-03 20:15 23.16117 -109.71974 380 ft 20 kts 355°
2026-05-03 20:15 23.16247 -109.71986 382 ft 17 kts 354°
2026-05-03 20:16 23.16356 -109.71998 385 ft 14 kts 354°
2026-05-03 20:16 23.16443 -109.72008 387 ft 11 kts 354°
2026-05-03 20:16 23.16509 -109.72016 388 ft 9 kts 353°
2026-05-03 20:16 23.16550 -109.72032 389 ft 10 kts 319°
2026-05-03 20:17 23.16556 -109.72110 390 ft 12 kts 262°
2026-05-03 20:17 23.16535 -109.72208 390 ft 14 kts 232°
2026-05-03 20:17 23.16433 -109.72217 388 ft 19 kts 175°
2026-05-03 20:17 23.15892 -109.72151 375 ft 108 kts 174°
2026-05-03 20:18 23.15283 -109.72079 366 ft 151 kts 173°
2026-05-03 20:18 23.14095 -109.71962 506 ft 188 kts 172°
2026-05-03 20:18 23.12749 -109.71821 1063 ft 200 kts 174°
2026-05-03 20:18 23.11361 -109.71665 1526 ft 201 kts 173°
2026-05-03 20:19 23.09897 -109.71488 1684 ft 224 kts 173°
2026-05-03 20:19 23.08270 -109.71293 2002 ft 243 kts 173°
2026-05-03 20:19 23.06551 -109.71091 2598 ft 250 kts 173°
2026-05-03 20:19 23.04798 -109.70953 3247 ft 255 kts 185°
2026-05-03 20:20 23.03152 -109.71652 3873 ft 261 kts 221°
2026-05-03 20:20 23.02177 -109.73293 4536 ft 264 kts 256°
2026-05-03 20:20 23.02253 -109.75260 5217 ft 268 kts 289°
2026-05-03 20:20 23.03231 -109.76989 5880 ft 271 kts 307°
2026-05-03 20:21 23.04504 -109.78516 6541 ft 273 kts 310°
2026-05-03 20:21 23.05797 -109.80000 7116 ft 274 kts 310°
2026-05-03 20:21 23.07112 -109.81510 7717 ft 276 kts 310°
2026-05-03 20:21 23.08393 -109.83071 8328 ft 277 kts 304°
2026-05-03 20:22 23.09512 -109.84766 8925 ft 277 kts 301°
2026-05-03 20:22 23.10554 -109.86534 9475 ft 279 kts 298°
2026-05-03 20:22 23.11573 -109.88332 9997 ft 281 kts 298°
2026-05-03 20:22 23.12759 -109.90040 10479 ft 287 kts 311°
2026-05-03 20:23 23.14361 -109.91387 10878 ft 299 kts 322°
2026-05-03 20:23 23.16176 -109.92628 10993 ft 316 kts 325°
2026-05-03 20:23 23.18095 -109.93902 11116 ft 332 kts 325°
2026-05-03 20:23 23.20122 -109.95228 11235 ft 347 kts 326°
2026-05-03 20:24 23.22239 -109.96608 11354 ft 362 kts 326°
2026-05-03 20:24 23.24434 -109.98045 11547 ft 373 kts 326°
2026-05-03 20:24 23.26670 -109.99516 11935 ft 378 kts 326°
2026-05-03 20:24 23.28929 -110.01009 12376 ft 380 kts 326°
2026-05-03 20:25 23.31195 -110.02515 12816 ft 382 kts 326°
2026-05-03 20:25 23.33469 -110.04031 13248 ft 385 kts 326°
2026-05-03 20:25 23.35733 -110.05541 13666 ft 387 kts 326°
2026-05-03 20:25 23.38037 -110.07077 14075 ft 389 kts 326°
2026-05-03 20:26 23.40352 -110.08619 14436 ft 392 kts 326°
2026-05-03 20:26 23.42683 -110.10169 14788 ft 394 kts 327°
2026-05-03 20:26 23.45028 -110.11729 15129 ft 396 kts 327°
2026-05-03 20:26 23.47383 -110.13298 15489 ft 398 kts 327°
2026-05-03 20:27 23.49759 -110.14885 15847 ft 400 kts 327°
2026-05-03 20:27 23.52139 -110.16475 16197 ft 402 kts 326°
2026-05-03 20:27 23.54392 -110.18278 16527 ft 403 kts 317°
2026-05-03 20:27 23.56405 -110.20413 16877 ft 404 kts 314°
2026-05-03 20:28 23.58403 -110.22590 17227 ft 406 kts 314°
2026-05-03 20:28 23.60411 -110.24766 17553 ft 409 kts 314°
2026-05-03 20:28 23.62441 -110.26956 17885 ft 411 kts 315°
2026-05-03 20:28 23.64453 -110.29125 18208 ft 413 kts 315°
2026-05-03 20:29 23.66499 -110.31330 18539 ft 414 kts 314°
2026-05-03 20:29 23.68569 -110.33569 18831 ft 416 kts 314°
2026-05-03 20:29 23.70601 -110.35770 19133 ft 417 kts 314°
2026-05-03 20:29 23.72666 -110.38006 19440 ft 419 kts 314°
2026-05-03 20:30 23.74733 -110.40252 19728 ft 420 kts 314°
2026-05-03 20:30 23.76810 -110.42508 20044 ft 422 kts 314°
2026-05-03 20:30 23.78894 -110.44773 20351 ft 423 kts 313°
2026-05-03 20:30 23.80980 -110.47040 20665 ft 424 kts 313°
2026-05-03 20:31 23.83075 -110.49311 20982 ft 426 kts 313°
2026-05-03 20:31 23.85185 -110.51597 21287 ft 427 kts 313°
2026-05-03 20:31 23.87305 -110.53876 21602 ft 429 kts 315°
2026-05-03 20:31 23.89673 -110.55881 21900 ft 433 kts 324°
2026-05-03 20:32 23.92346 -110.57423 22198 ft 438 kts 334°
2026-05-03 20:32 23.95237 -110.58541 22491 ft 442 kts 338°
2026-05-03 20:32 23.98156 -110.59616 22776 ft 443 kts 338°
2026-05-03 20:32 24.01081 -110.60696 23070 ft 445 kts 338°
2026-05-03 20:33 24.04015 -110.61785 23346 ft 446 kts 337°
2026-05-03 20:33 24.06966 -110.62879 23621 ft 448 kts 337°
2026-05-03 20:33 24.09922 -110.63976 23852 ft 450 kts 337°
2026-05-03 20:33 24.12892 -110.65081 24096 ft 451 kts 337°
2026-05-03 20:34 24.15866 -110.66186 24331 ft 452 kts 337°
2026-05-03 20:34 24.18853 -110.67294 24591 ft 453 kts 337°
2026-05-03 20:34 24.21836 -110.68402 24870 ft 453 kts 337°
2026-05-03 20:34 24.24824 -110.69515 25120 ft 454 kts 336°
2026-05-03 20:35 24.27817 -110.70633 25348 ft 455 kts 337°
2026-05-03 20:35 24.30815 -110.71752 25548 ft 456 kts 336°
2026-05-03 20:35 24.33823 -110.72874 25776 ft 457 kts 337°
2026-05-03 20:35 24.36836 -110.73995 26001 ft 458 kts 336°
2026-05-03 20:36 24.39860 -110.75123 26213 ft 459 kts 336°
2026-05-03 20:36 24.42850 -110.76240 26410 ft 460 kts 336°
2026-05-03 20:36 24.45924 -110.77388 26643 ft 461 kts 337°
2026-05-03 20:36 24.48925 -110.78510 26883 ft 462 kts 336°
2026-05-03 20:37 24.51972 -110.79648 27102 ft 463 kts 336°
2026-05-03 20:37 24.55028 -110.80791 27304 ft 464 kts 336°
2026-05-03 20:37 24.58087 -110.81934 27514 ft 465 kts 336°
2026-05-03 20:37 24.61153 -110.83079 27820 ft 465 kts 336°
2026-05-03 20:38 24.64208 -110.84220 28119 ft 464 kts 336°
2026-05-03 20:38 24.67265 -110.85364 28422 ft 463 kts 336°
2026-05-03 20:38 24.70309 -110.86504 28735 ft 462 kts 336°
2026-05-03 20:38 24.73345 -110.87641 29049 ft 461 kts 336°
2026-05-03 20:39 24.76377 -110.88776 29376 ft 459 kts 336°
2026-05-03 20:39 24.79394 -110.89908 29730 ft 457 kts 336°
2026-05-03 20:39 24.82398 -110.91035 30055 ft 455 kts 336°
2026-05-03 20:39 24.85392 -110.92162 30317 ft 454 kts 336°
2026-05-03 20:40 24.88384 -110.93291 30547 ft 454 kts 336°
2026-05-03 20:40 24.91371 -110.94418 30792 ft 453 kts 336°
2026-05-03 20:40 24.94356 -110.95542 31019 ft 453 kts 336°
2026-05-03 20:40 24.97338 -110.96664 31253 ft 453 kts 336°
2026-05-03 20:41 25.00316 -110.97787 31508 ft 452 kts 336°
2026-05-03 20:41 25.03290 -110.98907 31795 ft 451 kts 335°
2026-05-03 20:41 25.06250 -111.00023 32120 ft 449 kts 335°
2026-05-03 20:41 25.09196 -111.01134 32427 ft 447 kts 335°
2026-05-03 20:42 25.12144 -111.02245 32698 ft 447 kts 334°
2026-05-03 20:42 25.15076 -111.03354 32972 ft 446 kts 334°
2026-05-03 20:42 25.18014 -111.04465 33219 ft 445 kts 334°
2026-05-03 20:42 25.20950 -111.05575 33455 ft 445 kts 334°
2026-05-03 20:43 25.23840 -111.06668 33710 ft 444 kts 334°
2026-05-03 20:43 25.26759 -111.07770 33889 ft 443 kts 334°
2026-05-03 20:43 25.29671 -111.08875 34077 ft 443 kts 334°
2026-05-03 20:43 25.32591 -111.09983 34302 ft 441 kts 333°
2026-05-03 20:44 25.35479 -111.11076 34598 ft 438 kts 333°
2026-05-03 20:44 25.38355 -111.12164 34867 ft 436 kts 333°
2026-05-03 20:44 25.41220 -111.13251 35104 ft 434 kts 333°
2026-05-03 20:44 25.44072 -111.14335 35330 ft 433 kts 333°
2026-05-03 20:45 25.46918 -111.15420 35509 ft 433 kts 333°
2026-05-03 20:45 25.49761 -111.16503 35713 ft 432 kts 333°
2026-05-03 20:45 25.52595 -111.17581 35899 ft 430 kts 333°
2026-05-03 20:46 25.58240 -111.19731 35990 ft 427 kts 333°
2026-05-03 20:46 25.63858 -111.21869 35972 ft 427 kts 333°
2026-05-03 20:47 25.69473 -111.24007 35974 ft 427 kts 333°
2026-05-03 20:47 25.75099 -111.26158 35976 ft 427 kts 333°
2026-05-03 20:48 25.80726 -111.28307 35992 ft 428 kts 333°
2026-05-03 20:48 25.86352 -111.30461 36023 ft 428 kts 333°
2026-05-03 20:49 25.91982 -111.32622 36022 ft 428 kts 332°
2026-05-03 20:49 25.97695 -111.34456 36015 ft 439 kts 343°
2026-05-03 20:49 26.00777 -111.34671 36012 ft 451 kts 353°
2026-05-03 20:50 26.03928 -111.34410 35974 ft 455 kts 356°
2026-05-03 20:50 26.10243 -111.33811 35955 ft 455 kts 356°
2026-05-03 20:51 26.16556 -111.33229 35954 ft 455 kts 355°
2026-05-03 20:51 26.22878 -111.32645 35949 ft 456 kts 356°
2026-05-03 20:52 26.29193 -111.32059 35951 ft 456 kts 356°
2026-05-03 20:52 26.35516 -111.31464 35951 ft 456 kts 356°
2026-05-03 20:53 26.41829 -111.30873 35967 ft 456 kts 355°
2026-05-03 20:53 26.48155 -111.30280 35959 ft 456 kts 355°
2026-05-03 20:54 26.54478 -111.29689 35950 ft 456 kts 355°
2026-05-03 20:54 26.63952 -111.28800 35944 ft 456 kts 355°
2026-05-03 20:55 26.70268 -111.28204 35939 ft 456 kts 355°
2026-05-03 20:55 26.76590 -111.27611 35957 ft 456 kts 355°
2026-05-03 20:56 26.82913 -111.27018 35957 ft 456 kts 355°
2026-05-03 20:56 26.89231 -111.26425 35952 ft 456 kts 355°
2026-05-03 20:57 26.95558 -111.25826 35947 ft 456 kts 355°
2026-05-03 20:57 27.01882 -111.25223 35968 ft 456 kts 355°
2026-05-03 20:58 27.08167 -111.24626 35962 ft 456 kts 355°
2026-05-03 20:58 27.14489 -111.24031 35957 ft 456 kts 355°
2026-05-03 20:59 27.20812 -111.23429 35954 ft 456 kts 355°
2026-05-03 20:59 27.27135 -111.22826 35956 ft 456 kts 355°
2026-05-03 21:00 27.31370 -111.22423 35979 ft 456 kts 355°
2026-05-03 21:00 27.39780 -111.21634 35975 ft 455 kts 355°
2026-05-03 21:01 27.46096 -111.21035 35968 ft 455 kts 355°
2026-05-03 21:01 27.52406 -111.20424 35966 ft 455 kts 355°
2026-05-03 21:02 27.58722 -111.19815 35978 ft 455 kts 354°
2026-05-03 21:02 27.65003 -111.19230 35965 ft 457 kts 354°
2026-05-03 21:03 27.71338 -111.18629 35951 ft 458 kts 355°
2026-05-03 21:03 27.77694 -111.18019 35968 ft 458 kts 355°
2026-05-03 21:04 27.82974 -111.17509 35968 ft 458 kts 355°
2026-05-03 21:04 27.89332 -111.16891 35976 ft 459 kts 354°
2026-05-03 21:05 27.95701 -111.16278 35964 ft 459 kts 354°
2026-05-03 21:05 28.02076 -111.15669 35960 ft 460 kts 354°
2026-05-03 21:06 28.08465 -111.15055 35955 ft 461 kts 354°
2026-05-03 21:06 28.14849 -111.14436 35968 ft 460 kts 354°
2026-05-03 21:07 28.21221 -111.13814 35963 ft 458 kts 354°
2026-05-03 21:07 28.27569 -111.13197 35941 ft 458 kts 353°
2026-05-03 21:08 28.33914 -111.12591 35944 ft 458 kts 353°
2026-05-03 21:08 28.40266 -111.11976 35942 ft 458 kts 353°
2026-05-03 21:09 28.46609 -111.11356 35930 ft 456 kts 353°
2026-05-03 21:09 28.52881 -111.10741 35936 ft 455 kts 353°
2026-05-03 21:10 28.59200 -111.10125 35932 ft 455 kts 353°
2026-05-03 21:10 28.65517 -111.09515 35934 ft 455 kts 353°
2026-05-03 21:11 28.71839 -111.08906 35950 ft 456 kts 353°
2026-05-03 21:11 28.78159 -111.08289 35936 ft 456 kts 354°
2026-05-03 21:12 28.84491 -111.07666 35946 ft 456 kts 354°
2026-05-03 21:12 28.90819 -111.07048 35951 ft 457 kts 354°
2026-05-03 21:13 28.97147 -111.06428 35955 ft 457 kts 354°
2026-05-03 21:13 29.03481 -111.05792 35959 ft 457 kts 354°
2026-05-03 21:14 29.09818 -111.05164 35960 ft 456 kts 353°
2026-05-03 21:14 29.16086 -111.04773 35962 ft 452 kts 351°
2026-05-03 21:15 29.22406 -111.04577 35952 ft 451 kts 350°
2026-05-03 21:15 29.28646 -111.04370 35962 ft 452 kts 350°
2026-05-03 21:16 29.34949 -111.04096 35948 ft 454 kts 351°
2026-05-03 21:16 29.41263 -111.03798 35937 ft 455 kts 350°
2026-05-03 21:17 29.46559 -111.03553 35931 ft 455 kts 350°
2026-05-03 21:17 29.53922 -111.03221 35959 ft 455 kts 351°
2026-05-03 21:18 29.60249 -111.02938 35960 ft 454 kts 351°
2026-05-03 21:18 29.66562 -111.02654 35948 ft 454 kts 351°
2026-05-03 21:19 29.72873 -111.02368 35943 ft 454 kts 351°
2026-05-03 21:19 29.79143 -111.02088 35941 ft 453 kts 351°
2026-05-03 21:20 29.85443 -111.01813 35953 ft 453 kts 350°
2026-05-03 21:20 29.91792 -111.01530 35942 ft 454 kts 350°
2026-05-03 21:21 29.98061 -111.01243 35938 ft 454 kts 350°
2026-05-03 21:21 30.04370 -111.00953 35931 ft 453 kts 350°
2026-05-03 21:22 30.10667 -111.00670 35947 ft 453 kts 350°
2026-05-03 21:22 30.16968 -111.00387 35940 ft 453 kts 350°
2026-05-03 21:23 30.23269 -111.00101 35934 ft 453 kts 350°
2026-05-03 21:23 30.29563 -110.99811 35927 ft 452 kts 350°
2026-05-03 21:24 30.35852 -110.99529 35946 ft 452 kts 349°
2026-05-03 21:24 30.42133 -110.99245 35933 ft 451 kts 350°
2026-05-03 21:25 30.48404 -110.98962 35920 ft 451 kts 349°
2026-05-03 21:25 30.54677 -110.98681 35914 ft 451 kts 350°
2026-05-03 21:26 30.60948 -110.98369 35933 ft 451 kts 349°
2026-05-03 21:26 30.67220 -110.98056 35911 ft 451 kts 350°
2026-05-03 21:27 30.73484 -110.97744 35907 ft 451 kts 349°
2026-05-03 21:27 30.79715 -110.97448 35905 ft 451 kts 349°
2026-05-03 21:28 30.85981 -110.97152 35889 ft 450 kts 349°
2026-05-03 21:28 30.92240 -110.96872 35905 ft 451 kts 350°
2026-05-03 21:29 30.98519 -110.96587 35903 ft 452 kts 350°
2026-05-03 21:29 31.04809 -110.96295 35897 ft 452 kts 350°
2026-05-03 21:30 31.11097 -110.96007 35914 ft 452 kts 350°
2026-05-03 21:30 31.17352 -110.95721 35972 ft 452 kts 350°
2026-05-03 21:31 31.23651 -110.95438 35997 ft 453 kts 350°
2026-05-03 21:31 31.29957 -110.95147 36032 ft 453 kts 350°
2026-05-03 21:32 31.36263 -110.94857 36050 ft 453 kts 350°
2026-05-03 21:32 31.42572 -110.94571 36074 ft 454 kts 349°
2026-05-03 21:33 31.48897 -110.94278 36053 ft 455 kts 349°
2026-05-03 21:33 31.55223 -110.93985 36018 ft 455 kts 349°
2026-05-03 21:34 31.61550 -110.93695 35973 ft 455 kts 349°
2026-05-03 21:34 31.64716 -110.93553 35869 ft 455 kts 349°
2026-05-03 21:34 31.67885 -110.93411 35866 ft 455 kts 349°
2026-05-03 21:35 31.74214 -110.93121 35864 ft 455 kts 349°
2026-05-03 21:35 31.80546 -110.92834 35887 ft 455 kts 349°
2026-05-03 21:36 31.86845 -110.92543 35918 ft 456 kts 349°
2026-05-03 21:36 31.93192 -110.92246 35973 ft 456 kts 349°
2026-05-03 21:37 31.99542 -110.91951 35988 ft 457 kts 349°
2026-05-03 21:37 32.05906 -110.91625 35993 ft 462 kts 353°
2026-05-03 21:38 32.09129 -110.91008 35992 ft 478 kts
2026-05-03 21:38 32.12346 -110.89782 35990 ft 494 kts 11°
2026-05-03 21:38 32.18589 -110.86157 36007 ft 502 kts 15°
2026-05-03 21:39 32.24834 -110.82432 35995 ft 502 kts 15°
2026-05-03 21:39 32.31078 -110.78715 35989 ft 502 kts 15°
2026-05-03 21:40 32.37316 -110.75005 35955 ft 502 kts 15°
2026-05-03 21:40 32.43561 -110.71287 35951 ft 502 kts 15°
2026-05-03 21:41 32.49803 -110.67571 35969 ft 502 kts 15°
2026-05-03 21:41 32.56039 -110.63849 35961 ft 501 kts 15°
2026-05-03 21:42 32.62217 -110.60146 35955 ft 501 kts 15°
2026-05-03 21:42 32.68442 -110.56415 35945 ft 501 kts 15°
2026-05-03 21:43 32.74669 -110.52675 35971 ft 501 kts 16°
2026-05-03 21:43 32.80876 -110.48943 35903 ft 499 kts 16°
2026-05-03 21:44 32.87031 -110.45236 35902 ft 498 kts 16°
2026-05-03 21:44 32.93264 -110.41478 35881 ft 499 kts 16°
2026-05-03 21:45 32.99414 -110.37772 35880 ft 499 kts 16°
2026-05-03 21:45 33.05604 -110.34027 35899 ft 499 kts 17°
2026-05-03 21:46 33.11783 -110.30278 35890 ft 498 kts 17°
2026-05-03 21:46 33.17957 -110.26530 35880 ft 496 kts 17°
2026-05-03 21:47 33.24112 -110.22786 35875 ft 496 kts 17°
2026-05-03 21:47 33.30264 -110.19042 35901 ft 496 kts 17°
2026-05-03 21:48 33.36416 -110.15296 35923 ft 496 kts 17°
2026-05-03 21:48 33.42520 -110.11570 35915 ft 495 kts 17°
2026-05-03 21:49 33.48657 -110.07815 35923 ft 495 kts 17°
2026-05-03 21:49 33.54777 -110.04064 35935 ft 494 kts 17°
2026-05-03 21:50 33.60894 -110.00315 35965 ft 493 kts 17°
2026-05-03 21:50 33.67006 -109.96568 35953 ft 493 kts 17°
2026-05-03 21:51 33.73112 -109.92805 35968 ft 493 kts 17°
2026-05-03 21:51 33.79209 -109.89034 35965 ft 493 kts 17°
2026-05-03 21:52 33.85298 -109.85267 35952 ft 492 kts 17°
2026-05-03 21:52 33.90356 -109.82143 35967 ft 491 kts 17°
2026-05-03 21:53 33.96426 -109.78386 35973 ft 490 kts 17°
2026-05-03 21:53 34.02489 -109.74626 35989 ft 490 kts 17°
2026-05-03 21:54 34.08545 -109.70865 35986 ft 490 kts 17°
2026-05-03 21:54 34.14600 -109.67088 36018 ft 490 kts 18°
2026-05-03 21:55 34.20620 -109.63340 36023 ft 489 kts 17°
2026-05-03 21:55 34.26671 -109.59570 36012 ft 489 kts 18°
2026-05-03 21:56 34.32719 -109.55785 35991 ft 489 kts 18°
2026-05-03 21:56 34.38761 -109.51999 35958 ft 489 kts 18°
2026-05-03 21:57 34.44797 -109.48216 35915 ft 489 kts 18°
2026-05-03 21:57 34.47818 -109.46319 36114 ft 488 kts 18°
2026-05-03 21:57 34.50834 -109.44423 36134 ft 488 kts 17°
2026-05-03 21:58 34.56865 -109.40621 36122 ft 488 kts 17°
2026-05-03 21:58 34.62889 -109.36811 36101 ft 488 kts 17°
2026-05-03 21:59 34.68909 -109.33000 36084 ft 488 kts 17°
2026-05-03 21:59 34.74935 -109.29188 36015 ft 487 kts 17°
2026-05-03 22:00 34.80945 -109.25386 35962 ft 487 kts 17°
2026-05-03 22:00 34.86962 -109.21579 35924 ft 487 kts 17°
2026-05-03 22:01 34.92931 -109.17786 35920 ft 487 kts 17°
2026-05-03 22:01 34.98951 -109.13985 35934 ft 486 kts 16°
2026-05-03 22:02 35.05033 -109.10438 35929 ft 483 kts 14°
2026-05-03 22:02 35.11145 -109.07010 35924 ft 483 kts 14°
2026-05-03 22:03 35.17239 -109.03517 35923 ft 484 kts 14°
2026-05-03 22:03 35.23323 -108.99964 35970 ft 484 kts 14°
2026-05-03 22:04 35.29405 -108.96407 36006 ft 485 kts 14°
2026-05-03 22:04 35.35499 -108.92850 36049 ft 485 kts 14°
2026-05-03 22:05 35.41561 -108.89311 36101 ft 486 kts 14°
2026-05-03 22:05 35.47661 -108.85741 36132 ft 486 kts 15°
2026-05-03 22:06 35.53777 -108.82150 36155 ft 487 kts 14°
2026-05-03 22:06 35.59895 -108.78555 36139 ft 488 kts 14°
2026-05-03 22:07 35.66020 -108.74955 36092 ft 488 kts 14°
2026-05-03 22:07 35.69085 -108.73151 35909 ft 488 kts 14°
2026-05-03 22:07 35.72145 -108.71346 35910 ft 488 kts 14°
2026-05-03 22:08 35.78267 -108.67734 35932 ft 488 kts 14°
2026-05-03 22:08 35.84385 -108.64121 35928 ft 488 kts 14°
2026-05-03 22:09 35.90505 -108.60495 35924 ft 488 kts 14°
2026-05-03 22:10 35.99677 -108.55046 35926 ft 488 kts 14°
2026-05-03 22:10 36.05788 -108.51401 35945 ft 487 kts 14°
2026-05-03 22:11 36.11891 -108.47759 35941 ft 487 kts 14°
2026-05-03 22:11 36.17998 -108.44114 35942 ft 487 kts 14°
2026-05-03 22:12 36.24050 -108.40500 35948 ft 486 kts 15°
2026-05-03 22:12 36.30130 -108.36866 35982 ft 485 kts 15°
2026-05-03 22:13 36.36205 -108.33221 35968 ft 484 kts 15°
2026-05-03 22:13 36.42270 -108.29574 35963 ft 484 kts 15°
2026-05-03 22:14 36.48335 -108.25925 35961 ft 484 kts 15°
2026-05-03 22:14 36.54391 -108.22271 35992 ft 484 kts 15°
2026-05-03 22:15 36.60450 -108.18600 36070 ft 484 kts 15°
2026-05-03 22:15 36.66497 -108.14939 36079 ft 484 kts 15°
2026-05-03 22:16 36.72566 -108.11261 36075 ft 484 kts 15°
2026-05-03 22:16 36.78583 -108.07600 36058 ft 484 kts 15°
2026-05-03 22:17 36.84638 -108.03914 36057 ft 484 kts 16°
2026-05-03 22:17 36.90697 -108.00217 36034 ft 484 kts 16°
2026-05-03 22:18 36.96754 -107.96518 36016 ft 484 kts 16°
2026-05-03 22:18 37.02804 -107.92812 36010 ft 484 kts 16°
2026-05-03 22:19 37.08859 -107.89097 36009 ft 484 kts 16°
2026-05-03 22:19 37.14911 -107.85375 36030 ft 484 kts 16°
2026-05-03 22:20 37.20969 -107.81655 36023 ft 484 kts 16°
2026-05-03 22:20 37.23986 -107.79797 36134 ft 484 kts 16°
2026-05-03 22:20 37.26982 -107.77952 36024 ft 484 kts 16°
2026-05-03 22:21 37.33039 -107.74212 36070 ft 484 kts 17°
2026-05-03 22:21 37.39085 -107.70482 36064 ft 483 kts 17°
2026-05-03 22:22 37.45108 -107.66738 36075 ft 483 kts 17°
2026-05-03 22:22 37.51138 -107.62981 36088 ft 482 kts 17°
2026-05-03 22:23 37.57152 -107.59248 36126 ft 482 kts 17°
2026-05-03 22:23 37.63149 -107.55510 36119 ft 480 kts 18°
2026-05-03 22:24 37.69147 -107.51771 36119 ft 480 kts 18°
2026-05-03 22:24 37.75021 -107.47713 36114 ft 490 kts 28°
2026-05-03 22:25 37.80187 -107.42018 36109 ft 498 kts 36°
2026-05-03 22:25 37.85247 -107.36031 36141 ft 498 kts 36°
2026-05-03 22:26 37.90316 -107.30053 36137 ft 497 kts 36°
2026-05-03 22:26 37.95366 -107.24095 36119 ft 496 kts 36°
2026-05-03 22:27 38.00406 -107.18120 36104 ft 496 kts 37°
2026-05-03 22:27 38.05434 -107.12131 36090 ft 496 kts 37°
2026-05-03 22:28 38.10458 -107.06142 36114 ft 495 kts 37°
2026-05-03 22:28 38.15391 -107.00024 36084 ft 498 kts 44°
2026-05-03 22:29 38.19848 -106.93262 36091 ft 498 kts 44°
2026-05-03 22:29 38.24275 -106.86549 36067 ft 498 kts 44°
2026-05-03 22:30 38.28717 -106.79799 36046 ft 497 kts 44°
2026-05-03 22:30 38.33155 -106.73027 36041 ft 498 kts 45°
2026-05-03 22:31 38.37582 -106.66258 36041 ft 497 kts 45°
2026-05-03 22:31 38.42002 -106.59487 36038 ft 495 kts 45°
2026-05-03 22:32 38.46400 -106.52744 36027 ft 494 kts 45°
2026-05-03 22:32 38.50789 -106.46005 36012 ft 493 kts 45°
2026-05-03 22:33 38.55165 -106.39267 36020 ft 492 kts 46°
2026-05-03 22:33 38.59529 -106.32528 36038 ft 492 kts 45°
2026-05-03 22:34 38.63861 -106.25818 36051 ft 491 kts 45°
2026-05-03 22:34 38.68214 -106.19075 35820 ft 489 kts 45°
2026-05-03 22:34 38.70397 -106.15735 35496 ft 487 kts 45°
2026-05-03 22:35 38.72577 -106.12414 35156 ft 487 kts 45°
2026-05-03 22:35 38.74758 -106.09096 34834 ft 485 kts 45°
2026-05-03 22:35 38.76921 -106.05795 34508 ft 482 kts 46°
2026-05-03 22:35 38.79065 -106.02514 33330 ft 479 kts 46°
2026-05-03 22:36 38.81180 -105.99270 32542 ft 465 kts 46°
2026-05-03 22:36 38.83229 -105.96115 31595 ft 456 kts 46°
2026-05-03 22:36 38.85238 -105.93017 30514 ft 447 kts 46°
2026-05-03 22:36 38.87217 -105.89967 29418 ft 444 kts 47°
2026-05-03 22:37 38.89189 -105.86933 28462 ft 451 kts 47°
2026-05-03 22:37 38.91185 -105.83851 28016 ft 449 kts 47°
2026-05-03 22:37 38.93181 -105.80745 27386 ft 450 kts 47°
2026-05-03 22:37 38.95162 -105.77647 26786 ft 448 kts 48°
2026-05-03 22:38 38.97133 -105.74556 26297 ft 443 kts 48°
2026-05-03 22:38 38.99083 -105.71499 25670 ft 442 kts 48°
2026-05-03 22:38 39.01019 -105.68469 25298 ft 435 kts 48°
2026-05-03 22:38 39.02936 -105.65472 24795 ft 431 kts 48°
2026-05-03 22:39 39.04838 -105.62512 24343 ft 428 kts 48°
2026-05-03 22:39 39.06089 -105.60571 24029 ft 425 kts 48°
2026-05-03 22:39 39.07970 -105.57653 23663 ft 421 kts 48°
2026-05-03 22:39 39.09831 -105.54762 23081 ft 418 kts 48°
2026-05-03 22:40 39.11673 -105.51899 22620 ft 412 kts 49°
2026-05-03 22:40 39.13471 -105.49097 22380 ft 401 kts 49°
2026-05-03 22:40 39.15229 -105.46353 21968 ft 395 kts 49°
2026-05-03 22:40 39.16959 -105.43630 21491 ft 392 kts 49°
2026-05-03 22:41 39.18664 -105.40924 20810 ft 385 kts 49°
2026-05-03 22:41 39.20331 -105.38267 20102 ft 377 kts 49°
2026-05-03 22:41 39.21974 -105.35642 19575 ft 375 kts 49°
2026-05-03 22:41 39.23608 -105.33033 19044 ft 373 kts 49°
2026-05-03 22:42 39.25248 -105.30416 18527 ft 375 kts 49°
2026-05-03 22:42 39.26862 -105.27823 18364 ft 365 kts 52°
2026-05-03 22:42 39.28132 -105.25043 18240 ft 355 kts 66°
2026-05-03 22:42 39.28866 -105.22059 18031 ft 347 kts 79°
2026-05-03 22:43 39.29239 -105.18990 17561 ft 346 kts 81°
2026-05-03 22:43 39.29597 -105.15916 17133 ft 344 kts 81°
2026-05-03 22:43 39.29952 -105.12877 16781 ft 341 kts 81°
2026-05-03 22:43 39.30303 -105.09885 16320 ft 341 kts 81°
2026-05-03 22:44 39.30659 -105.06839 15989 ft 337 kts 80°
2026-05-03 22:44 39.31003 -105.03889 15543 ft 336 kts 80°
2026-05-03 22:44 39.31349 -105.00938 15023 ft 328 kts 80°
2026-05-03 22:44 39.31762 -104.98048 14504 ft 326 kts 76°
2026-05-03 22:45 39.32261 -104.95246 14212 ft 309 kts 75°
2026-05-03 22:45 39.32777 -104.92589 14150 ft 301 kts 74°
2026-05-03 22:45 39.33288 -104.90003 14031 ft 292 kts 74°
2026-05-03 22:45 39.33788 -104.87484 13904 ft 288 kts 73°
2026-05-03 22:46 39.34360 -104.85004 13605 ft 286 kts 70°
2026-05-03 22:46 39.34983 -104.82573 13323 ft 284 kts 69°
2026-05-03 22:46 39.35754 -104.80247 13044 ft 279 kts 54°
2026-05-03 22:46 39.37005 -104.78351 12795 ft 274 kts 37°
2026-05-03 22:47 39.38587 -104.77015 12702 ft 272 kts 26°
2026-05-03 22:47 39.40230 -104.75862 12515 ft 272 kts 25°
2026-05-03 22:47 39.41887 -104.74686 12332 ft 271 kts 26°
2026-05-03 22:47 39.43531 -104.73514 12149 ft 270 kts 26°
2026-05-03 22:48 39.45175 -104.72339 11957 ft 269 kts 25°
2026-05-03 22:48 39.46815 -104.71167 11775 ft 269 kts 26°
2026-05-03 22:48 39.48451 -104.69999 11580 ft 268 kts 26°
2026-05-03 22:48 39.50081 -104.68835 11403 ft 267 kts 26°
2026-05-03 22:49 39.51709 -104.67672 11213 ft 266 kts 26°
2026-05-03 22:49 39.53385 -104.66681 11024 ft 262 kts 13°
2026-05-03 22:49 39.55176 -104.66375 10699 ft 258 kts 356°
2026-05-03 22:49 39.56956 -104.66360 10373 ft 257 kts 357°
2026-05-03 22:50 39.58750 -104.66343 10039 ft 256 kts 356°
2026-05-03 22:50 39.60527 -104.66322 9718 ft 255 kts 357°
2026-05-03 22:50 39.62289 -104.66300 9385 ft 252 kts 356°
2026-05-03 22:50 39.64045 -104.66279 9043 ft 251 kts 358°
2026-05-03 22:51 39.65797 -104.66258 8716 ft 250 kts 357°
2026-05-03 22:51 39.67507 -104.66238 8395 ft 249 kts 358°
2026-05-03 22:51 39.69234 -104.66217 8071 ft 247 kts 356°
2026-05-03 22:51 39.70955 -104.66197 7750 ft 247 kts 356°
2026-05-03 22:52 39.72667 -104.66176 7440 ft 244 kts 358°
2026-05-03 22:52 39.74364 -104.66156 7132 ft 241 kts 358°
2026-05-03 22:52 39.75997 -104.66135 6839 ft 231 kts 357°
2026-05-03 22:52 39.77580 -104.66116 6564 ft 221 kts 356°
2026-05-03 22:53 39.79025 -104.66097 6307 ft 196 kts 359°
2026-05-03 22:53 39.80280 -104.66082 6053 ft 178 kts 356°
2026-05-03 22:53 39.81465 -104.66067 5774 ft 163 kts 359°
2026-05-03 22:53 39.82575 -104.66056 5540 ft 157 kts 358°
2026-05-03 22:54 39.83656 -104.66042 5443 ft 151 kts 355°
2026-05-03 22:54 39.84534 -104.66038 5415 ft 86 kts
2026-05-03 22:54 39.84987 -104.66030 5398 ft 61 kts 359°
2026-05-03 22:54 39.85230 -104.66112 5391 ft 29 kts 335°
2026-05-03 22:55 39.85430 -104.66231 5394 ft 35 kts 349°
2026-05-03 22:55 39.85676 -104.66238 5389 ft 31 kts
2026-05-03 22:55 39.85888 -104.66235 5393 ft 29 kts
2026-05-03 22:55 39.86015 -104.66282 5389 ft 17 kts 311°
2026-05-03 22:56 39.85963 -104.66353 5387 ft 19 kts 180°
2026-05-03 22:56 39.85820 -104.66349 5391 ft 16 kts 180°
2026-05-03 22:56 39.85708 -104.66363 5391 ft 16 kts 207°
2026-05-03 22:56 39.85670 -104.66530 5387 ft 22 kts 254°
2026-05-03 22:57 39.85661 -104.66743 5387 ft 22 kts 274°
2026-05-03 22:57 39.85712 -104.66828 5384 ft 7 kts 334°
2026-05-03 22:57 39.85739 -104.66835 5387 ft 1 kts 353°
2026-05-03 22:57 39.85756 -104.66835 5387 ft 4 kts 360°
2026-05-03 22:58 39.85790 -104.66835 5386 ft 2 kts
2026-05-03 22:58 39.85792 -104.66835 5387 ft 0 kts